Hourly Data Report for October 27, 2015

All times are specified in Local Standard Time (LST). Add 1 hour to adjust for Daylight Saving Time where and when it is observed.

HALL BEACH A
NUNAVUT

68°46'33.000" N
81°14'33.000" W
9.10 m
2402354
71293
YUX

Download Data

Hourly Data (October 2015)
Hourly Data Report for October 27, 2015
Temp Definition
°C
Dew Point Temp Definition
°C
Rel Hum Definition
%
Wind Dir Definition
10's deg

Wind Spd Definition
km/h
Visibility Definition
km
Stn Press Definition
kPa
Hmdx Definition


Wind Chill Definition


Weather Definition


TIME
00:00 Legend Double Dagger -10.5 -11.6 92 24 13 4.8 99.20   -17 Snow
01:00 Legend Double Dagger -10.1 -11.0 93 23 9 4.0 99.22   -15 Snow
02:00 Legend Double Dagger -9.4 -10.2 94 24 13 4.0 99.25   -15 Snow
03:00 Legend Double Dagger -6.7 -8.1 90 35 24 9.7 99.28   -14 Snow
04:00 Legend Double Dagger -6.7 -7.5 94 34 28 4.8 99.31   -15 Snow
05:00 Legend Double Dagger -7.1 -8.5 90 8 11 14.5 99.39   -12 Snow
06:00 Legend Double Dagger -6.9 -9.2 84 6 13 16.1 99.50   -12 Snow
07:00 Legend Double Dagger -6.7 -8.8 85 5 5 16.1 99.58   -9 Snow
08:00 Legend Double Dagger -6.6 -8.7 85 32 8 16.1 99.65   -10 Snow
09:00 Legend Double Dagger -7.2 -8.7 89 33 22 16.1 99.73   -15 Snow
10:00 Legend Double Dagger -7.3 -9.0 88 34 15 16.1 99.78   -13 Snow
11:00 Legend Double Dagger -8.3 -9.5 91 30 21 16.1 99.83   -16 Snow
12:00 Legend Double Dagger -8.5 -9.4 93 33 18 16.1 99.90   -16 LegendNANA
13:00 Legend Double Dagger -8.7 -9.8 92 31 22 4.0 99.96   -17 Snow
14:00 Legend Double Dagger -8.9 -10.0 92 32 22 4.8 100.03   -17 Snow
15:00 Legend Double Dagger -9.4 -10.6 91 31 24 16.1 100.07   -18 Snow
16:00 Legend Double Dagger -10.1 -11.3 91 31 21 8.1 100.17   -18 Snow
17:00 Legend Double Dagger -10.8 -12.0 91 32 22 16.1 100.22   -19 Snow
18:00 Legend Double Dagger -11.6 -12.9 90 32 26 16.1 100.27   -21 LegendNANA
19:00 Legend Double Dagger -12.0 -13.6 88 31 22 16.1 100.34   -21 LegendNANA
20:00 Legend Double Dagger -13.7 -15.3 88 32 24 16.1 100.37   -23 LegendNANA
21:00 Legend Double Dagger -13.5 -14.8 90 30 26 16.1 100.41   -23 LegendNANA
22:00 Legend Double Dagger -10.5 -11.7 91 32 24 16.1 100.43   -19 LegendNANA
23:00 Legend Double Dagger -8.3 -9.1 94 33 22 16.1 100.46   -16 LegendNANA

Notes on Data Quality.

Legend

  • E = Estimated
  • M = Missing
  • NA = Not Available
  • ‡ = Partner data that is not subject to review by the National Climate Archives
Date modified: